Simultaneous Nadir Overpasses (SNOs) Predictions

Prediction of SNOs between NOAA-20 and METOP-B Satellite Orbit:

Table of predicted SNOs for the next 14.0 days since TLE Epoch: 12/17/2022
Index Date (NOAA-20) Time (NOAA-20) Lat,Lon (NOAA-20) SZA (NOAA-20 ) Date (METOP-B) Time (METOP-B) Lat,Lon (METOP-B) SZA (METOP-B ) Distance(km) Time Diff (sec)
1 12/21/2022 14:03:37 73.49, -40.72 97.04 12/21/2022 14:04:43 73.41, -37.86 96.84 91.14 66
2 12/21/2022 14:54:19 -73.39, 126.81 83.07 12/21/2022 14:55:26 -73.34, 129.32 83.22 79.96 67
3 12/21/2022 15:45:01 73.19, -65.43 96.71 12/21/2022 15:46:10 73.14, -63.80 96.59 52.76 69
4 12/21/2022 16:35:43 -73.10, 102.10 83.39 12/21/2022 16:36:54 -73.02, 103.28 83.52 39.07 71
5 12/21/2022 17:26:25 72.89, -90.16 96.39 12/21/2022 17:27:38 72.81, -89.83 96.29 13.71 73
6 12/21/2022 18:17:07 -72.80, 77.36 83.72 12/21/2022 18:18:20 -72.80, 77.47 83.73 3.54 73
7 12/21/2022 19:07:52 72.74,-115.22 96.23 12/21/2022 19:09:01 72.74,-115.32 96.23 3.31 69
8 12/21/2022 19:58:36 -72.75, 52.09 83.77 12/21/2022 19:59:42 -72.78, 52.09 83.74 3.56 66
9 12/21/2022 20:49:22 72.74,-140.60 96.23 12/21/2022 20:50:22 72.77,-140.59 96.25 3.27 60
10 12/21/2022 21:40:06 -72.75, 26.71 83.76 12/21/2022 21:41:04 -72.76, 26.71 83.76 1.07 58
11 12/21/2022 22:30:52 72.75,-165.98 96.24 12/21/2022 22:31:44 72.75,-165.97 96.24 0.76 52
12 12/21/2022 23:21:36 -72.75, 1.33 83.76 12/21/2022 23:22:26 -72.74, 1.33 83.78 1.42 50
13 12/22/2022 00:12:22 72.75, 168.64 96.24 12/22/2022 00:13:06 72.73, 168.64 96.22 1.75 44
14 12/22/2022 01:03:06 -72.76, -24.05 83.76 12/22/2022 01:03:47 -72.77, -23.95 83.75 3.78 41
15 12/22/2022 01:53:52 72.75, 143.26 96.24 12/22/2022 01:54:27 72.76, 143.37 96.25 3.74 35
16 12/22/2022 02:44:36 -72.76, -49.43 83.75 12/22/2022 02:45:09 -72.75, -49.33 83.77 3.41 33
17 12/22/2022 03:35:22 72.75, 117.88 96.25 12/22/2022 03:35:49 72.74, 117.99 96.23 3.61 27
18 12/22/2022 04:26:05 -72.71, -74.71 83.81 12/22/2022 04:26:31 -72.73, -74.71 83.79 2.37 26
19 12/22/2022 05:16:51 72.71, 92.61 96.20 12/22/2022 05:17:11 72.72, 92.61 96.21 2.01 20
20 12/22/2022 06:07:35 -72.71,-100.09 83.80 12/22/2022 06:07:53 -72.71,-100.09 83.81 0.24 18
21 12/22/2022 06:58:21 72.71, 67.23 96.20 12/22/2022 06:58:33 72.70, 67.23 96.19 0.52 12
22 12/22/2022 07:49:05 -72.72,-125.47 83.80 12/22/2022 07:49:15 -72.69,-125.47 83.82 2.64 10
23 12/22/2022 08:39:51 72.71, 41.85 96.20 12/22/2022 08:39:55 72.68, 41.84 96.17 3.03 4
24 12/22/2022 09:30:35 -72.72,-150.85 83.80 12/22/2022 09:30:36 -72.72,-150.75 83.80 3.23 1
25 12/22/2022 10:21:21 72.71, 16.47 96.20 12/22/2022 10:21:16 72.72, 16.57 96.20 3.27 5
26 12/22/2022 11:12:04 -72.67,-176.12 83.85 12/22/2022 11:11:58 -72.70,-176.13 83.81 3.65 6
27 12/22/2022 12:02:50 72.67, -8.81 96.15 12/22/2022 12:02:38 72.69, -8.81 96.18 3.25 12
28 12/22/2022 12:53:33 -72.67, 158.50 83.85 12/22/2022 12:53:19 -72.68, 158.49 83.83 1.18 14
29 12/22/2022 13:44:19 72.67, -34.19 96.16 12/22/2022 13:43:59 72.67, -34.19 96.17 0.76 20
30 12/22/2022 14:35:03 -72.67, 133.12 83.84 12/22/2022 14:34:41 -72.66, 133.11 83.85 1.40 22
31 12/22/2022 15:25:49 72.67, -59.57 96.16 12/22/2022 15:25:21 72.65, -59.58 96.15 1.83 28
32 12/22/2022 16:16:33 -72.68, 107.74 83.84 12/22/2022 16:16:02 -72.69, 107.83 83.82 3.55 31
33 12/22/2022 17:07:19 72.67, -84.95 96.16 12/22/2022 17:06:42 72.69, -84.85 96.18 3.41 37
34 12/22/2022 17:58:03 -72.68, 82.36 83.84 12/22/2022 17:57:24 -72.67, 82.45 83.84 3.14 39
35 12/22/2022 18:48:49 72.68,-110.33 96.16 12/22/2022 18:48:04 72.67,-110.23 96.16 3.32 45
36 12/22/2022 19:39:32 -72.63, 57.08 83.89 12/22/2022 19:38:46 -72.65, 57.07 83.86 2.43 46
37 12/22/2022 20:30:18 72.63,-135.60 96.11 12/22/2022 20:29:26 72.65,-135.61 96.14 1.97 52
38 12/22/2022 21:21:02 -72.63, 31.70 83.89 12/22/2022 21:20:08 -72.63, 31.69 83.88 0.45 54
39 12/22/2022 22:11:48 72.63,-160.98 96.11 12/22/2022 22:10:48 72.63,-160.99 96.12 0.72 60
40 12/22/2022 23:02:32 -72.64, 6.32 83.88 12/22/2022 23:01:30 -72.61, 6.31 83.90 2.66 62
41 12/22/2022 23:53:18 72.63, 173.64 96.12 12/22/2022 23:52:10 72.61, 173.62 96.10 3.16 68
42 12/23/2022 00:44:02 -72.64, -19.06 83.88 12/23/2022 00:42:51 -72.64, -18.97 83.87 3.00 71
43 12/23/2022 01:34:47 72.59, 148.36 96.07 12/23/2022 01:33:32 72.59, 148.24 96.08 3.91 75
44 12/23/2022 02:25:29 -72.49, -44.13 84.04 12/23/2022 02:24:15 -72.52, -44.56 83.98 14.70 74
45 12/23/2022 03:16:11 72.28, 123.59 95.74 12/23/2022 03:15:00 72.26, 122.25 95.78 45.43 71
46 12/23/2022 04:06:53 -72.19, -68.91 84.36 12/23/2022 04:05:43 -72.20, -70.54 84.28 55.52 70
47 12/23/2022 04:57:35 71.98, 98.81 95.42 12/23/2022 04:56:27 71.98, 96.38 95.53 83.35 68
48 12/23/2022 05:48:17 -71.88, -93.70 84.69 12/23/2022 05:47:11 -71.87, -96.50 84.58 96.81 66



Historial Predications of SNOs between NOAA-20 and METOP-B
